PSLV R/B, 43620

Orbit data source: Space-Track

PSLV R/B, 43620 is space debris in SSO originally from a launch on Sun, 16 Sep 2018 UTC launched from the Sirharikota (SRI). Debris objects in space refer to the collection of defunct objects orbiting the Earth. Examples of debris include non-operational satellites, rocket bodies, and fragments generated from explosions, collisions, or faulty payload assembly.

Loading next visibility...
PSLV R/B details
Identifier
43620, 2018-071C
Orbit
SSO
Last TLE update22 hours ago
Origin
Flag of INISRO (IN / IND)
ManufacturerVSSC/LPSC
MissionSpacecraft
Bus & MotorPS-4, Unknown motor
Mass920 kg wet, 920 kg dry
Launch date (UTC)
2018-09-16 (6 years ago)
Launch vehicleUnknown
Launch site
Sirharikota (SRI)
Object type
Payload
Rocket body
Debris
Shape & HBRCyl + Cyl + 2 Nozzle, 3.238 m
Radar Cross Section6.185 m², Large (>1 m²)

Expand to show TLE details & history

TLE from 22 hours ago
0 PSLV R/B
1 43620U 18071C   24360.53964224  .00005869  00000-0  51066-3 0  9991
2 43620  97.4378 190.2930 0028531 146.5483 213.7549 14.96987600341738
Epoch: 2024-12-25T12:57Z
Definitive object data (Epoch: 2024-12-25T12:57:05.089Z)
Latitude-0.00004°
Longitude-98.51013°
Altitude595.786 km
Speed7.553 km/s
True Right ascension12h 41m 10s
True Declination0° 00' 00"
Sunlit
Object was in daylight at TLE epoch
Visualization TLE readout
Latitude-4.48069°
Longitude81.7661°
Altitude564.894 km
Speed7.587 km/s
Apparent Right ascension23h 35m 06s
Apparent Declination-22° 33' 21"
Sunlit
Object is in daylight
Visualization observer readout
Local Sidereal Time09:58:44
Azimuth303.208° NW
Elevation-63.221°
Doppler factor1
Orbital elements
Apogee altitude593.041 km
Perigee altitude553.375 km
Semi-major axis6,951.345 km
Eccentricity0.0028531
Inclination97.4378°
RAAN190.293°
Arg. of periapsis146.5483°
True anomaly213.57378°
Mean anomaly213.7549°
Eccentric anomaly213.66428°
Mean motion3.7449 °/min
BSTAR0.00051066
Orbital period96.13 mins
Loading maneuver chart data...
Loading historical data...
Loading historical data...
Loading historical data...
Loading historical data...
Loading historical data...
Loading historical data...
Loading historical data...
Other satellites on launch #71 in the year 2018 (2018-09-16 UTC)

PSLV R/B Visibility forecast

Observer location: undefined°, undefined

Span
Click to sort rows by Start time (UTC) header in descending order
Start Az.
Max El. time (UTC)
Max El. Az.
Max El.
End time (UTC)
End Az.
7 mins2024-12-26 13:08:31.846Z181.38° SSW2024-12-26 13:11:31.846Z259.576° W41.487°2024-12-26 13:15:31.846Z341° N
4 mins2024-12-27 00:50:31.846Z60.942° ENE2024-12-27 00:52:31.846Z98.025° ESE17.746°2024-12-27 00:54:31.846Z132.361° SE
5 mins2024-12-27 02:25:31.846Z336.213° NNW2024-12-27 02:27:31.846Z291.649° WNW26.138°2024-12-27 02:30:31.846Z232.462° WSW
|